SCP
0 0 0 0 0 0 0 0 0 0 0 0 0 0 0 1 0 0 -0 0 0 0 0 0 0 1 1 1 1 1 1 2 2 1 0 0 0 0 0 0 0 0 0
0 0 0 0 0 0 0 0 0 0 0 0 0 0 0 0 1 0 1 1 0 0 0 1 1 2 1 2 2 2 2 2 2 2 1 1 0 0 0 0 0 0 0
0 0 0 0 0 0 0 0 0 0 0 0 0 0 0 0 0 0 0 0 0 1 2 1 1 1 1 1 1 1 1 1 2 2 2 1 0 0 0 0 0 0 0
0 0 0 0 0 0 0 0 0 0 0 0 0 0 0 0 0 0 0 0 0 0 0 0 0 0 0 1 1 1 1 2 2 2 0 0 0 0 0 0 0 0 0
0 0 0 0 0 0 0 0 0 0 0 0 0 0 0 0 0 0 0 0 0 0 0 0 0 0 0 0 0 0 1 1 2 3 0 0 0 0 0 0 0 0 0
0 0 0 0 0 0 0 0 0 0 0 0 0 0 0 0 0 0 0 0 0 0 0 0 0 0 0 0 0 1 1 1 1 2 1 0 0 0 0 0 0 0 0
0 0 0 0 0 0 0 0 0 0 0 0 0 0 0 0 0 0 0 0 0 0 0 0 0 0 0 0 0 1 1 1 2 1 0 0 0 0 0 0 0 0 0
0 0 0 0 0 0 0 0 0 0 0 0 0 0 0 0 0 0 0 0 0 0 0 0 0 0 0 0 0 0 1 1 2 1 0 0 0 0 0 0 0 0 0
0 0 0 0 0 0 0 0 0 0 0 0 0 0 0 0 0 0 0 0 0 0 0 0 0 0 0 0 0 0 0 1 1 1 0 0 0 0 0 0 0 0 0
0 0 0 0 0 0 -0 -0 -0 -0 -0 0 0 0 0 0 0 0 0 0 0 0 0 0 0 0 0 0 0 0 0 0 1 0 0 0 0 0 0 0 0 0 0
0 0 0 0 0 0 0 0 0 0 0 0 0 0 0 0 0 0 0 0 0 0 0 0 0 0 0 0 0 0 0 0 0 0 0 0 0 0 0 0 0 0 0
0 0 0 0 0 0 0 0 0 0 -0 -0 -0 0 0 0 0 0 0 0 0 0 0 0 0 0 0 0 0 0 0 0 0 0 0 0 0 0 0 0 0 0 0
0 0 0 0 0 0 -0 -0 -0 -0 -0 -0 -0 -0 -0 0 0 0 0 0 0 0 0 0 0 0 0 0 0 0 0 0 0 0 0 0 0 0 0 0 0 0 0
0 0 0 0 0 0 -0 0 -0 -0 -0 -0 -0 -0 -0 -0 -0 0 0 0 0 0 0 0 0 0 0 0 0 0 0 0 0 0 0 0 0 0 0 0 0 0 0
0 0 0 0 0 0 0 0 0 -0 -0 -0 -0 -0 -0 -0 -0 -0 -0 0 0 0 0 0 0 0 0 0 0 0 0 0 0 0 0 0 0 0 0 0 0 0 0
0 0 0 0 0 0 0 0 0 0 -0 -0 -0 -0 -0 -0 -0 -0 -0 -0 -0 -0 0 0 0 0 0 0 0 0 0 0 0 0 0 0 0 0 0 0 0 0 0
0 0 0 0 0 0 0 0 -0 -0 -0 -0 -0 -0 -0 -0 -0 -0 -0 -0 -0 -0 -0 0 0 0 0 0 0 0 0 0 0 0 0 0 0 0 0 0 0 0 0
0 0 0 0 0 -0 -0 -0 -0 -0 -0 -0 -0 -0 -0 -0 -0 -0 -0 -0 -0 -0 -0 0 0 0 0 0 0 0 0 0 0 0 0 0 0 0 0 0 0 0 0
0 0 0 0 -0 -0 -0 -0 -0 -0 -0 -0 -0 -0 -0 0 0 0 -0 -0 -0 -0 -0 0 0 0 0 0 0 0 0 0 0 0 0 0 0 0 0 0 0 0 0
0 0 0 0 0 -0 -0 -0 -0 -0 -0 -0 -0 -0 0 0 0 0 0 -0 -0 -0 0 0 0 0 0 0 0 0 0 0 0 0 0 0 0 0 0 0 0 0 0
0 0 0 0 0 -0 -0 -0 -0 -0 -0 -0 -0 -0 0 0 0 0 0 0 0 0 0 0 0 0 0 0 -0 0 0 0 0 0 0 0 0 0 0 0 0 0 0
0 0 0 0 -0 -0 -0 -0 -0 -0 -0 -0 -0 -0 -0 0 0 0 0 0 0 0 0 0 0 0 -0 -0 -0 -0 0 0 0 0 0 0 0 0 0 0 0 0 0
0 0 0 -0 -0 -0 -0 -0 -0 -0 -0 -0 -0 -0 -0 0 0 0 0 0 0 0 0 0 0 0 0 -0 -0 -0 0 0 0 0 0 0 0 0 0 0 0 0 0
-0 0 0 0 -0 -0 -0 -0 -0 -0 -0 -0 -0 -0 -0 -0 0 0 0 0 0 0 -0 0 0 -0 0 -0 -0 -0 0 0 0 0 0 0 0 0 0 0 0 0 0
-0 -0 -0 -0 -0 -0 -0 -0 -0 -0 -0 -0 -0 -0 -0 -0 -0 0 0 0 0 0 0 -0 -0 0 -0 0 -0 -0 0 0 0 0 0 0 0 0 0 0 0 0 0
-0 -0 -0 -0 -0 -0 -0 -0 -0 -0 -0 -0 -0 -0 -0 -0 -0 -0 -0 0 0 0 0 0 0 -0 0 -0 -0 -0 -0 -0 0 0 0 0 0 0 0 0 0 0 0
Wind_Speed_500mb
47 51 54 53 50 48 43 40 31 23 19 19 25 28 32 31 38 42 49 53 54 52 52 50 50 48 50 49 49 49 53 53 49 49 55 54 56 52 47 36 33 33 32
53 54 56 55 55 52 48 43 38 31 29 26 22 23 23 28 34 39 40 44 48 50 50 52 53 55 56 57 60 61 62 60 59 54 53 42 40 44 40 33 32 37 37
56 57 56 58 56 57 57 53 48 41 35 23 17 16 16 16 28 34 40 37 37 33 29 35 47 59 60 61 66 69 67 66 62 64 43 25 24 20 18 24 32 35 38
51 51 56 58 59 57 53 52 51 50 45 40 36 29 20 21 26 33 40 37 37 39 29 41 86 68 60 63 66 66 67 62 56 63 67 69 58 18 1 23 33 41 44
46 50 52 53 53 55 54 51 51 50 47 43 40 38 34 33 34 36 37 44 56 57 51 67 77 77 73 66 69 64 61 59 57 63 67 60 61 46 39 56 46 42 51
43 44 46 50 54 56 53 51 50 51 53 53 51 47 44 43 45 42 46 50 54 60 75 84 79 77 86 81 72 82 82 74 59 60 70 74 74 75 59 57 58 47 44
40 44 48 49 51 59 60 56 54 52 52 52 54 55 57 57 57 55 55 58 62 61 67 76 76 84 85 83 72 61 68 75 76 79 77 73 79 85 80 70 86 59 43
41 43 45 43 45 49 53 53 57 57 55 54 54 54 56 60 62 64 67 67 66 69 74 77 78 80 83 87 90 81 67 73 73 71 80 80 74 85 88 81 81 58 57
32 36 40 41 44 49 52 53 57 58 60 59 59 60 61 61 62 64 68 74 75 74 76 81 85 84 89 87 91 91 85 69 72 71 80 81 72 88 83 88 87 66 51
31 35 38 40 42 44 43 44 47 50 51 56 66 65 65 65 66 66 67 70 75 79 86 89 89 90 90 90 90 93 90 78 89 78 78 78 76 88 87 86 81 64 44
28 31 34 35 39 40 43 44 44 48 49 57 59 56 64 74 75 75 73 73 76 78 83 86 93 100 99 92 89 90 89 80 91 79 82 80 64 77 91 82 78 75 51
26 29 32 34 38 38 42 44 45 46 47 51 54 63 71 72 83 83 81 78 82 80 81 82 86 93 101 101 95 87 85 80 87 87 85 77 78 89 82 84 92 81 66
27 31 32 35 37 37 38 40 44 45 48 49 49 55 78 83 86 84 82 80 82 86 87 82 81 85 88 94 96 87 81 78 88 98 81 82 84 92 93 94 76 84 73
28 31 32 36 37 38 40 43 43 43 46 49 51 53 69 79 82 85 82 81 81 87 90 87 85 85 79 83 86 83 74 82 96 100 89 97 89 88 84 74 77 88 80
27 30 35 38 39 40 42 43 43 46 47 49 51 54 62 76 81 81 85 87 82 80 80 79 73 76 76 75 78 76 73 82 89 98 109 110 95 84 70 85 85 85 79
27 32 36 37 38 39 43 46 46 51 53 53 53 53 60 70 84 87 88 88 85 83 81 77 71 68 64 65 68 71 71 75 83 103 112 115 106 94 79 75 84 83 76
28 33 35 35 39 36 39 46 47 49 53 49 49 52 60 63 82 87 86 90 88 87 83 79 78 69 60 57 65 62 67 77 80 109 118 116 105 99 83 78 71 70 65
26 30 34 33 33 36 39 47 47 47 48 50 52 54 60 62 77 86 90 83 89 89 88 90 86 71 61 58 60 57 58 71 74 106 119 114 112 97 92 85 80 74 64
22 28 32 31 30 37 42 46 43 46 47 50 54 59 59 63 72 82 86 92 80 88 91 90 94 91 71 52 58 42 47 62 77 93 105 104 109 98 96 97 91 77 64
21 29 31 25 30 38 43 44 43 44 48 53 53 54 59 60 65 72 81 87 88 81 82 93 98 97 86 61 39 2 30 64 69 70 77 80 96 94 96 94 87 74 60
23 29 28 23 30 35 39 45 48 52 50 49 49 51 55 52 56 61 72 83 89 83 81 87 95 101 95 80 56 44 46 50 64 65 71 72 81 75 66 68 64 58 50
24 29 31 24 28 31 37 44 52 54 50 47 46 49 52 53 50 59 68 81 88 88 84 87 86 94 97 90 74 65 56 58 63 73 69 72 60 61 50 48 42 40 34
26 32 36 31 28 32 37 42 49 54 52 47 45 46 48 49 46 53 59 68 78 86 83 86 86 84 88 88 81 69 57 61 70 62 64 49 48 36 44 32 28 28 24
13 23 32 38 39 40 41 43 49 56 50 45 44 43 42 46 48 43 54 63 75 74 74 74 74 78 78 79 77 70 66 61 53 43 45 40 40 37 41 39 32 26 22
7 14 21 27 35 42 45 48 53 59 51 42 42 47 40 40 39 42 46 53 53 60 61 60 60 65 73 68 58 56 54 48 45 45 50 41 40 39 37 30 24 19 13
6 11 16 20 25 34 41 48 55 61 59 43 43 45 41 40 39 40 40 39 45 43 49 48 50 51 50 55 54 50 43 36 28 31 35 33 30 29 24 19 14 10 8
Wind_Direction_500mb
30 33 36 41 47 50 50 43 32 21 337 307 288 266 263 267 263 262 266 270 270 270 271 271 274 273 272 275 276 275 274 275 278 277 278 281 284 288 287 275 262 242 239
23 25 26 31 35 36 38 37 35 32 28 18 354 346 302 285 271 265 264 260 257 263 271 277 281 284 279 275 273 268 268 269 269 268 269 267 275 274 276 264 246 238 234
12 11 16 19 22 25 25 24 21 20 17 9 357 323 300 276 263 262 258 246 248 240 245 258 272 276 267 265 271 268 266 267 268 268 255 263 252 246 258 259 248 240 237
13 9 10 15 15 15 15 17 14 11 11 5 359 353 327 303 296 290 275 259 238 227 221 287 280 269 264 264 265 263 264 264 256 260 254 249 251 232 353 307 272 255 248
11 8 9 11 12 10 11 11 7 3 2 0 356 348 338 322 304 285 270 266 258 251 247 245 255 265 265 261 265 264 263 264 261 258 255 247 248 247 234 244 250 259 258
11 9 8 10 12 12 11 8 6 3 359 356 352 346 337 327 316 306 295 280 267 259 260 263 269 266 266 272 273 265 265 268 270 263 263 260 249 237 229 235 247 245 265
10 9 9 9 9 9 7 7 5 3 358 354 349 344 339 334 326 319 310 301 292 282 274 272 270 267 266 267 270 268 271 270 266 263 267 264 259 243 242 241 243 240 241
7 8 6 6 6 5 4 4 3 2 2 357 352 346 339 334 330 324 318 311 304 296 290 284 280 274 270 268 265 266 262 266 262 258 259 262 257 248 247 237 231 227 236
2 1 2 6 3 1 2 2 2 5 5 0 354 351 347 341 331 324 321 317 312 303 295 291 286 278 274 273 270 265 262 257 257 259 258 257 256 245 236 224 229 225 215
0 360 360 0 360 358 355 358 357 354 353 354 357 357 351 346 339 331 326 321 315 311 306 300 292 284 278 272 269 268 264 256 259 257 257 252 249 243 234 219 221 214 238
1 3 2 1 359 358 358 357 354 354 354 356 354 348 344 350 347 340 332 326 321 316 310 303 296 294 287 280 271 266 264 258 252 252 249 243 239 235 220 222 216 219 230
0 1 1 0 360 359 358 358 355 352 354 354 354 355 355 349 348 342 337 334 330 322 317 310 301 293 290 286 279 269 258 256 252 248 247 240 229 225 220 217 218 207 195
356 357 357 359 357 357 357 355 354 353 352 352 348 352 356 356 350 346 342 340 337 331 323 316 309 301 293 285 281 275 261 248 249 245 242 233 219 219 219 223 221 206 204
349 353 358 357 356 356 357 356 355 354 353 352 349 345 351 1 357 354 349 344 340 335 330 324 317 309 299 290 283 275 258 245 244 245 248 229 228 217 211 218 223 214 212
356 357 354 352 353 354 355 355 355 355 355 354 355 352 352 359 2 2 359 356 349 340 331 325 317 311 302 296 288 276 260 237 235 240 243 226 229 220 227 225 222 211 208
354 353 352 352 353 353 353 355 355 359 1 359 357 354 356 360 6 10 9 4 0 353 344 339 328 322 312 305 295 279 258 236 232 232 239 232 224 224 224 219 214 207 203
350 350 351 350 350 351 353 356 356 358 2 357 357 355 358 0 8 5 9 10 8 7 3 356 346 332 321 305 292 273 255 237 229 233 233 231 227 216 212 200 197 206 204
346 350 349 349 351 352 355 356 358 355 356 358 357 356 359 359 6 10 8 9 12 12 11 12 8 353 336 306 297 280 248 232 235 232 230 235 222 206 191 179 188 188 187
344 348 347 350 359 360 359 359 356 356 356 359 359 357 355 360 5 8 10 9 11 14 16 18 17 14 3 334 303 275 251 231 231 219 228 219 213 192 182 179 177 179 180
347 350 352 357 0 1 1 360 358 357 358 1 359 356 353 357 2 6 9 11 11 16 16 17 24 21 21 16 25 212 210 217 205 192 190 193 189 175 182 179 179 175 176
8 5 8 8 1 3 7 7 6 7 2 359 357 356 355 355 355 3 7 10 15 12 20 20 20 26 26 31 39 68 119 135 162 155 166 168 165 164 172 171 171 175 170
25 19 20 16 9 3 6 8 9 9 7 3 359 358 358 360 354 360 5 10 11 18 17 22 23 22 26 30 42 65 80 100 117 132 124 138 147 149 159 152 163 160 160
36 34 32 27 16 11 8 8 8 6 7 4 3 360 0 0 359 2 5 6 11 14 18 20 22 21 19 26 37 47 60 75 84 95 110 112 127 132 134 136 142 137 149
24 30 32 32 29 25 23 20 13 10 6 5 3 359 360 3 7 359 4 8 9 9 12 16 16 18 21 19 25 37 48 58 69 76 94 101 107 111 110 113 115 115 110
336 350 5 16 22 23 22 21 19 16 12 6 4 5 1 3 3 5 0 2 5 6 8 12 15 14 17 18 21 27 38 48 64 77 84 93 98 101 101 97 98 92 99
338 347 352 355 4 13 15 15 16 17 15 10 6 6 6 4 3 0 356 359 356 3 9 13 14 16 18 18 22 27 33 43 57 78 82 83 87 87 86 87 100 117 119
Wind_Speed_850mb
47 51 54 53 50 48 43 40 31 23 19 19 25 28 32 31 38 42 49 53 54 52 52 50 50 48 50 49 49 49 53 53 49 49 55 54 56 52 47 36 33 33 32
53 54 56 55 55 52 48 43 38 31 29 26 22 23 23 28 34 39 40 44 48 50 50 52 53 55 56 57 60 61 62 60 59 54 53 42 40 44 40 33 32 37 37
56 57 56 58 56 57 57 53 48 41 35 23 17 16 16 16 28 34 40 37 37 33 29 35 47 59 60 61 66 69 67 66 62 64 43 25 24 20 18 24 32 35 38
51 51 56 58 59 57 53 52 51 50 45 40 36 29 20 21 26 33 40 37 37 39 29 41 86 68 60 63 66 66 67 62 56 63 67 69 58 18 1 23 33 41 44
46 50 52 53 53 55 54 51 51 50 47 43 40 38 34 33 34 36 37 44 56 57 51 67 77 77 73 66 69 64 61 59 57 63 67 60 61 46 39 56 46 42 51
43 44 46 50 54 56 53 51 50 51 53 53 51 47 44 43 45 42 46 50 54 60 75 84 79 77 86 81 72 82 82 74 59 60 70 74 74 75 59 57 58 47 44
40 44 48 49 51 59 60 56 54 52 52 52 54 55 57 57 57 55 55 58 62 61 67 76 76 84 85 83 72 61 68 75 76 79 77 73 79 85 80 70 86 59 43
41 43 45 43 45 49 53 53 57 57 55 54 54 54 56 60 62 64 67 67 66 69 74 77 78 80 83 87 90 81 67 73 73 71 80 80 74 85 88 81 81 58 57
32 36 40 41 44 49 52 53 57 58 60 59 59 60 61 61 62 64 68 74 75 74 76 81 85 84 89 87 91 91 85 69 72 71 80 81 72 88 83 88 87 66 51
31 35 38 40 42 44 43 44 47 50 51 56 66 65 65 65 66 66 67 70 75 79 86 89 89 90 90 90 90 93 90 78 89 78 78 78 76 88 87 86 81 64 44
28 31 34 35 39 40 43 44 44 48 49 57 59 56 64 74 75 75 73 73 76 78 83 86 93 100 99 92 89 90 89 80 91 79 82 80 64 77 91 82 78 75 51
26 29 32 34 38 38 42 44 45 46 47 51 54 63 71 72 83 83 81 78 82 80 81 82 86 93 101 101 95 87 85 80 87 87 85 77 78 89 82 84 92 81 66
27 31 32 35 37 37 38 40 44 45 48 49 49 55 78 83 86 84 82 80 82 86 87 82 81 85 88 94 96 87 81 78 88 98 81 82 84 92 93 94 76 84 73
28 31 32 36 37 38 40 43 43 43 46 49 51 53 69 79 82 85 82 81 81 87 90 87 85 85 79 83 86 83 74 82 96 100 89 97 89 88 84 74 77 88 80
27 30 35 38 39 40 42 43 43 46 47 49 51 54 62 76 81 81 85 87 82 80 80 79 73 76 76 75 78 76 73 82 89 98 109 110 95 84 70 85 85 85 79
27 32 36 37 38 39 43 46 46 51 53 53 53 53 60 70 84 87 88 88 85 83 81 77 71 68 64 65 68 71 71 75 83 103 112 115 106 94 79 75 84 83 76
28 33 35 35 39 36 39 46 47 49 53 49 49 52 60 63 82 87 86 90 88 87 83 79 78 69 60 57 65 62 67 77 80 109 118 116 105 99 83 78 71 70 65
26 30 34 33 33 36 39 47 47 47 48 50 52 54 60 62 77 86 90 83 89 89 88 90 86 71 61 58 60 57 58 71 74 106 119 114 112 97 92 85 80 74 64
22 28 32 31 30 37 42 46 43 46 47 50 54 59 59 63 72 82 86 92 80 88 91 90 94 91 71 52 58 42 47 62 77 93 105 104 109 98 96 97 91 77 64
21 29 31 25 30 38 43 44 43 44 48 53 53 54 59 60 65 72 81 87 88 81 82 93 98 97 86 61 39 2 30 64 69 70 77 80 96 94 96 94 87 74 60
23 29 28 23 30 35 39 45 48 52 50 49 49 51 55 52 56 61 72 83 89 83 81 87 95 101 95 80 56 44 46 50 64 65 71 72 81 75 66 68 64 58 50
24 29 31 24 28 31 37 44 52 54 50 47 46 49 52 53 50 59 68 81 88 88 84 87 86 94 97 90 74 65 56 58 63 73 69 72 60 61 50 48 42 40 34
26 32 36 31 28 32 37 42 49 54 52 47 45 46 48 49 46 53 59 68 78 86 83 86 86 84 88 88 81 69 57 61 70 62 64 49 48 36 44 32 28 28 24
13 23 32 38 39 40 41 43 49 56 50 45 44 43 42 46 48 43 54 63 75 74 74 74 74 78 78 79 77 70 66 61 53 43 45 40 40 37 41 39 32 26 22
7 14 21 27 35 42 45 48 53 59 51 42 42 47 40 40 39 42 46 53 53 60 61 60 60 65 73 68 58 56 54 48 45 45 50 41 40 39 37 30 24 19 13
6 11 16 20 25 34 41 48 55 61 59 43 43 45 41 40 39 40 40 39 45 43 49 48 50 51 50 55 54 50 43 36 28 31 35 33 30 29 24 19 14 10 8
Wind_Direction_850mb
30 33 36 41 47 50 50 43 32 21 337 307 288 266 263 267 263 262 266 270 270 270 271 271 274 273 272 275 276 275 274 275 278 277 278 281 284 288 287 275 262 242 239
23 25 26 31 35 36 38 37 35 32 28 18 354 346 302 285 271 265 264 260 257 263 271 277 281 284 279 275 273 268 268 269 269 268 269 267 275 274 276 264 246 238 234
12 11 16 19 22 25 25 24 21 20 17 9 357 323 300 276 263 262 258 246 248 240 245 258 272 276 267 265 271 268 266 267 268 268 255 263 252 246 258 259 248 240 237
13 9 10 15 15 15 15 17 14 11 11 5 359 353 327 303 296 290 275 259 238 227 221 287 280 269 264 264 265 263 264 264 256 260 254 249 251 232 353 307 272 255 248
11 8 9 11 12 10 11 11 7 3 2 0 356 348 338 322 304 285 270 266 258 251 247 245 255 265 265 261 265 264 263 264 261 258 255 247 248 247 234 244 250 259 258
11 9 8 10 12 12 11 8 6 3 359 356 352 346 337 327 316 306 295 280 267 259 260 263 269 266 266 272 273 265 265 268 270 263 263 260 249 237 229 235 247 245 265
10 9 9 9 9 9 7 7 5 3 358 354 349 344 339 334 326 319 310 301 292 282 274 272 270 267 266 267 270 268 271 270 266 263 267 264 259 243 242 241 243 240 241
7 8 6 6 6 5 4 4 3 2 2 357 352 346 339 334 330 324 318 311 304 296 290 284 280 274 270 268 265 266 262 266 262 258 259 262 257 248 247 237 231 227 236
2 1 2 6 3 1 2 2 2 5 5 0 354 351 347 341 331 324 321 317 312 303 295 291 286 278 274 273 270 265 262 257 257 259 258 257 256 245 236 224 229 225 215
0 360 360 0 360 358 355 358 357 354 353 354 357 357 351 346 339 331 326 321 315 311 306 300 292 284 278 272 269 268 264 256 259 257 257 252 249 243 234 219 221 214 238
1 3 2 1 359 358 358 357 354 354 354 356 354 348 344 350 347 340 332 326 321 316 310 303 296 294 287 280 271 266 264 258 252 252 249 243 239 235 220 222 216 219 230
0 1 1 0 360 359 358 358 355 352 354 354 354 355 355 349 348 342 337 334 330 322 317 310 301 293 290 286 279 269 258 256 252 248 247 240 229 225 220 217 218 207 195
356 357 357 359 357 357 357 355 354 353 352 352 348 352 356 356 350 346 342 340 337 331 323 316 309 301 293 285 281 275 261 248 249 245 242 233 219 219 219 223 221 206 204
349 353 358 357 356 356 357 356 355 354 353 352 349 345 351 1 357 354 349 344 340 335 330 324 317 309 299 290 283 275 258 245 244 245 248 229 228 217 211 218 223 214 212
356 357 354 352 353 354 355 355 355 355 355 354 355 352 352 359 2 2 359 356 349 340 331 325 317 311 302 296 288 276 260 237 235 240 243 226 229 220 227 225 222 211 208
354 353 352 352 353 353 353 355 355 359 1 359 357 354 356 360 6 10 9 4 0 353 344 339 328 322 312 305 295 279 258 236 232 232 239 232 224 224 224 219 214 207 203
350 350 351 350 350 351 353 356 356 358 2 357 357 355 358 0 8 5 9 10 8 7 3 356 346 332 321 305 292 273 255 237 229 233 233 231 227 216 212 200 197 206 204
346 350 349 349 351 352 355 356 358 355 356 358 357 356 359 359 6 10 8 9 12 12 11 12 8 353 336 306 297 280 248 232 235 232 230 235 222 206 191 179 188 188 187
344 348 347 350 359 360 359 359 356 356 356 359 359 357 355 360 5 8 10 9 11 14 16 18 17 14 3 334 303 275 251 231 231 219 228 219 213 192 182 179 177 179 180
347 350 352 357 0 1 1 360 358 357 358 1 359 356 353 357 2 6 9 11 11 16 16 17 24 21 21 16 25 212 210 217 205 192 190 193 189 175 182 179 179 175 176
8 5 8 8 1 3 7 7 6 7 2 359 357 356 355 355 355 3 7 10 15 12 20 20 20 26 26 31 39 68 119 135 162 155 166 168 165 164 172 171 171 175 170
25 19 20 16 9 3 6 8 9 9 7 3 359 358 358 360 354 360 5 10 11 18 17 22 23 22 26 30 42 65 80 100 117 132 124 138 147 149 159 152 163 160 160
36 34 32 27 16 11 8 8 8 6 7 4 3 360 0 0 359 2 5 6 11 14 18 20 22 21 19 26 37 47 60 75 84 95 110 112 127 132 134 136 142 137 149
24 30 32 32 29 25 23 20 13 10 6 5 3 359 360 3 7 359 4 8 9 9 12 16 16 18 21 19 25 37 48 58 69 76 94 101 107 111 110 113 115 115 110
336 350 5 16 22 23 22 21 19 16 12 6 4 5 1 3 3 5 0 2 5 6 8 12 15 14 17 18 21 27 38 48 64 77 84 93 98 101 101 97 98 92 99
338 347 352 355 4 13 15 15 16 17 15 10 6 6 6 4 3 0 356 359 356 3 9 13 14 16 18 18 22 27 33 43 57 78 82 83 87 87 86 87 100 117 119